Location: Zagreb
(45.8000°N, 16.0000°E)
Time: 00:50:42
(UTC+01:00)

Courier 1B - All Passes

Search period start: 26 January 2020 00:00
Search period end: 05 February 2020 00:00
Orbit: 962 x 1209 km, 28.3° (Epoch: 25 January)

Date Brightness Start Highest point End Pass type
(mag) Time Alt. Az. Time Alt. Az. Time Alt. Az.
26 Jan - 01:44:11 10° S 01:46:11 11° SSE 01:48:14 10° SE night (unlit)
26 Jan - 03:34:08 10° SW 03:39:00 19° S 03:44:01 10° SE visible
26 Jan - 05:27:06 10° SW 05:32:01 19° S 05:37:02 10° SSE visible
26 Jan - 07:23:25 10° SW 07:24:56 11° SSW 07:26:27 10° SSW daylight
27 Jan - 02:41:01 10° SSW 02:45:27 17° SSE 02:50:00 10° SE visible
27 Jan - 04:33:26 10° SW 04:38:24 19° S 04:43:32 10° SE visible
27 Jan - 06:28:09 10° SW 06:31:22 13° SSW 06:34:38 10° S visible
28 Jan - 01:48:12 10° SSW 01:51:55 15° SSE 01:55:46 10° SE night (unlit)
28 Jan - 03:39:56 10° SW 03:44:49 19° S 03:49:54 10° SE visible
28 Jan - 05:33:50 10° SW 05:37:49 15° SSW 05:41:52 10° SSE visible
29 Jan - 00:55:48 10° S 00:58:27 12° SSE 01:01:10 10° SE night (unlit)
29 Jan - 02:46:36 10° SW 02:51:16 19° S 02:56:07 10° SE visible
29 Jan - 04:39:53 10° SW 04:44:14 17° S 04:48:43 10° SSE visible
30 Jan - 01:53:25 10° SSW 01:57:45 17° S 02:02:14 10° SE night (unlit)
30 Jan - 03:46:08 10° SW 03:50:40 18° S 03:55:22 10° SSE visible
30 Jan - 05:42:16 10° SSW 05:43:34 10° SSW 05:44:52 10° S visible
31 Jan - 01:00:27 10° SSW 01:04:15 16° SSE 01:08:10 10° SE night (unlit)
31 Jan - 02:52:35 10° SW 02:57:08 18° S 03:01:49 10° SE visible
31 Jan - 04:47:09 10° SW 04:50:02 13° SSW 04:52:59 10° S visible
01 Feb - 00:07:47 10° SSW 00:10:48 13° SSE 00:13:53 10° SE night (unlit)
01 Feb - 01:59:11 10° SW 02:03:36 18° S 02:08:10 10° SE night (unlit)
01 Feb - 03:52:55 10° SW 03:56:30 14° SSW 04:00:11 10° SSE visible
01 Feb - 23:15:50 10° S 23:17:23 11° SSE 23:18:57 10° SSE night (unlit)
02 Feb - 01:05:56 10° SW 01:10:07 17° S 01:14:25 10° SE night (unlit)
02 Feb - 02:59:04 10° SW 03:02:59 16° S 03:07:02 10° SSE visible
03 Feb - 00:12:50 10° SSW 00:16:38 16° S 00:20:33 10° SE night (unlit)
03 Feb - 02:05:25 10° SW 02:09:29 17° S 02:13:41 10° SSE night (unlit)
03 Feb - 23:19:57 10° SSW 23:23:12 14° SSE 23:26:31 10° SE night (unlit)
04 Feb - 01:11:54 10° SW 01:16:00 17° S 01:20:12 10° SE night (unlit)
04 Feb - 03:06:28 10° SW 03:08:50 12° SSW 03:11:14 10° S visible
04 Feb - 22:27:25 10° S 22:29:48 12° SSE 22:32:11 10° SE night (unlit)
